When you browse on this site, cookies collect data to enhance your experience and personalize the content and advertising you see.
Visit our Privacy Policy to learn more. By continuing to use the site, you agree to this use of cookies and data.
  • In United Kingdom
  • List of Countries
  • For 7 days
  • Water Temperature
  • Satellite Maps
  • Weather Map
  • Weather Widgets
  • user-avatar
    Login

    Hourly Weather Phin

    Today, 21 November, Wednesday

    Time Temperature Precipitation Wind Pressure Humidity
    00:00 +24°C° 0.1 mm 1 mps 737 mmHg 91%
    01:00 +24°C° 0 mm 1 mps 736 mmHg 94%
    02:00 +23°C° 0 mm 1 mps 736 mmHg 94%
    03:00 +23°C° 0 mm 1 mps 736 mmHg 95%
    04:00 +23°C° 0 mm 1 mps 736 mmHg 95%
    05:00 +23°C° 0 mm 1 mps 736 mmHg 93%
    06:00 +24°C° 0 mm 1 mps 737 mmHg 90%
    07:00 +24°C° 0 mm 1 mps 737 mmHg 88%
    08:00 +27°C° 0 mm 1 mps 737 mmHg 75%
    09:00 +30°C° 0 mm 1 mps 738 mmHg 63%
    10:00 +33°C° 0 mm 1 mps 738 mmHg 50%
    11:00 +34°C° 0 mm 1 mps 737 mmHg 45%
    12:00 +35°C° 0 mm 1 mps 737 mmHg 41%
    13:00 +37°C° 0 mm 2 mps 736 mmHg 36%
    14:00 +36°C° 0 mm 2 mps 736 mmHg 38%
    15:00 +35°C° 0 mm 2 mps 735 mmHg 40%
    16:00 +35°C° 0 mm 2 mps 735 mmHg 42%
    17:00 +31°C° 0 mm 2 mps 735 mmHg 52%
    18:00 +29°C° 0 mm 2 mps 735 mmHg 63%
    19:00 +27°C° 0 mm 2 mps 736 mmHg 73%
    20:00 +26°C° 0 mm 2 mps 736 mmHg 78%
    21:00 +25°C° 0 mm 2 mps 737 mmHg 82%
    22:00 +25°C° 0 mm 2 mps 737 mmHg 86%
    23:00 +24°C° 0 mm 2 mps 737 mmHg 87%

    Tomorrow, 22 November, Thursday

    Time Temperature Precipitation Wind Pressure Humidity
    00:00 +24°C° 0 mm 2 mps 737 mmHg 89%
    01:00 +24°C° 0 mm 2 mps 737 mmHg 90%
    02:00 +24°C° 0 mm 2 mps 737 mmHg 90%
    03:00 +24°C° 0 mm 2 mps 737 mmHg 90%
    04:00 +24°C° 0 mm 2 mps 736 mmHg 90%
    05:00 +24°C° 0 mm 2 mps 737 mmHg 88%
    06:00 +25°C° 0 mm 2 mps 738 mmHg 87%
    07:00 +25°C° 0 mm 2 mps 738 mmHg 85%
    08:00 +27°C° 0.1 mm 3 mps 739 mmHg 77%
    09:00 +28°C° 0.1 mm 3 mps 739 mmHg 70%
    10:00 +30°C° 0.1 mm 4 mps 739 mmHg 62%
    11:00 +29°C° 0.3 mm 4 mps 739 mmHg 63%
    12:00 +29°C° 0.3 mm 4 mps 738 mmHg 64%
    13:00 +29°C° 0.3 mm 4 mps 738 mmHg 65%
    14:00 +28°C° 0.1 mm 4 mps 737 mmHg 67%
    15:00 +27°C° 0.1 mm 4 mps 737 mmHg 68%
    16:00 +27°C° 0.1 mm 4 mps 737 mmHg 69%
    17:00 +26°C° 0 mm 3 mps 737 mmHg 71%
    18:00 +25°C° 0 mm 3 mps 738 mmHg 73%
    19:00 +24°C° 0 mm 3 mps 738 mmHg 75%
    20:00 +24°C° 0 mm 3 mps 738 mmHg 77%
    21:00 +24°C° 0 mm 3 mps 739 mmHg 78%
    22:00 +23°C° 0 mm 2 mps 739 mmHg 79%
    23:00 +22°C° 0 mm 3 mps 739 mmHg 80%

    Day after tomorrow, 23 November, Friday

    Time Temperature Precipitation Wind Pressure Humidity
    00:00 +22°C° 0 mm 3 mps 738 mmHg 81%
    01:00 +22°C° 0 mm 3 mps 738 mmHg 81%
    02:00 +22°C° 0 mm 3 mps 738 mmHg 81%
    03:00 +22°C° 0 mm 3 mps 738 mmHg 82%
    04:00 +22°C° 0 mm 3 mps 737 mmHg 82%
    05:00 +22°C° 0 mm 3 mps 738 mmHg 81%
    06:00 +24°C° 0 mm 3 mps 738 mmHg 81%
    07:00 +24°C° 0 mm 3 mps 739 mmHg 81%
    08:00 +25°C° 0 mm 3 mps 739 mmHg 74%
    09:00 +27°C° 0 mm 4 mps 739 mmHg 67%
    10:00 +29°C° 0 mm 4 mps 740 mmHg 60%
    11:00 +29°C° 0 mm 4 mps 739 mmHg 58%
    12:00 +30°C° 0 mm 4 mps 738 mmHg 56%
    13:00 +30°C° 0 mm 4 mps 738 mmHg 54%
    14:00 +30°C° 0 mm 4 mps 737 mmHg 57%
    15:00 +29°C° 0 mm 4 mps 737 mmHg 59%
    16:00 +28°C° 0 mm 3 mps 736 mmHg 62%
    17:00 +27°C° 0 mm 3 mps 737 mmHg 68%
    18:00 +25°C° 0 mm 2 mps 737 mmHg 74%
    19:00 +24°C° 0 mm 2 mps 738 mmHg 80%
    20:00 +23°C° 0 mm 2 mps 738 mmHg 83%
    21:00 +23°C° 0 mm 2 mps 738 mmHg 85%
    22:00 +21°C° 0 mm 2 mps 738 mmHg 88%
    23:00 +22°C° 0 mm 1 mps 738 mmHg 90%

    24 November, Saturday

    Time Temperature Precipitation Wind Pressure Humidity
    00:00 +22°C° 0 mm 1 mps 738 mmHg 92%
    01:00 +21°C° 0 mm 1 mps 737 mmHg 94%
    02:00 +21°C° 0 mm 1 mps 737 mmHg 94%
    03:00 +21°C° 0 mm 1 mps 736 mmHg 95%
    04:00 +21°C° 0 mm 1 mps 736 mmHg 95%
    05:00 +21°C° 0 mm 2 mps 736 mmHg 93%
    06:00 +21°C° 0 mm 2 mps 737 mmHg 91%
    07:00 +23°C° 0 mm 2 mps 737 mmHg 89%
    08:00 +25°C° 0 mm 2 mps 737 mmHg 80%
    09:00 +27°C° 0 mm 3 mps 737 mmHg 71%
    10:00 +29°C° 0 mm 4 mps 738 mmHg 62%
    11:00 +30°C° 0 mm 4 mps 737 mmHg 59%
    12:00 +30°C° 0 mm 4 mps 736 mmHg 56%
    13:00 +32°C° 0 mm 4 mps 735 mmHg 53%
    14:00 +30°C° 0 mm 4 mps 735 mmHg 57%
    15:00 +29°C° 0 mm 3 mps 735 mmHg 61%
    16:00 +28°C° 0 mm 3 mps 735 mmHg 65%
    17:00 +27°C° 0.4 mm 3 mps 735 mmHg 71%
    18:00 +26°C° 0.4 mm 2 mps 736 mmHg 77%
    19:00 +24°C° 0.4 mm 2 mps 736 mmHg 83%
    20:00 +24°C° 0.6 mm 2 mps 736 mmHg 86%
    21:00 +24°C° 0.6 mm 2 mps 737 mmHg 89%
    22:00 +23°C° 0.6 mm 2 mps 737 mmHg 91%
    23:00 +23°C° 1 mm 2 mps 736 mmHg 92%

    25 November, Sunday

    Time Temperature Precipitation Wind Pressure Humidity
    00:00 +23°C° 1 mm 2 mps 736 mmHg 93%
    01:00 +23°C° 1 mm 2 mps 735 mmHg 94%
    02:00 +23°C° 1.7 mm 2 mps 735 mmHg 94%
    03:00 +21°C° 1.7 mm 2 mps 735 mmHg 94%
    04:00 +21°C° 1.7 mm 2 mps 734 mmHg 95%
    05:00 +21°C° 1.3 mm 2 mps 735 mmHg 95%
    06:00 +21°C° 1.3 mm 2 mps 735 mmHg 95%
    07:00 +21°C° 1.3 mm 2 mps 735 mmHg 95%
    08:00 +23°C° 1.6 mm 2 mps 735 mmHg 95%
    09:00 +23°C° 1.6 mm 2 mps 736 mmHg 95%
    10:00 +23°C° 1.6 mm 2 mps 736 mmHg 95%
    11:00 +23°C° 4.1 mm 2 mps 735 mmHg 95%
    12:00 +23°C° 4.1 mm 2 mps 735 mmHg 96%
    13:00 +24°C° 4.1 mm 3 mps 734 mmHg 96%
    14:00 +24°C° 4.4 mm 3 mps 733 mmHg 96%
    15:00 +24°C° 4.4 mm 3 mps 733 mmHg 96%
    16:00 +22°C° 4.4 mm 3 mps 733 mmHg 96%
    17:00 +22°C° 3 mm 3 mps 733 mmHg 96%
    18:00 +22°C° 3 mm 3 mps 734 mmHg 96%
    19:00 +22°C° 3 mm 3 mps 734 mmHg 96%
    20:00 +22°C° 3 mm 3 mps 734 mmHg 96%
    21:00 +22°C° 3 mm 3 mps 734 mmHg 96%
    22:00 +22°C° 3 mm 3 mps 735 mmHg 96%
    23:00 +22°C° 2.6 mm 4 mps 734 mmHg 96%

    26 November, Monday

    Time Temperature Precipitation Wind Pressure Humidity
    00:00 +22°C° 2.6 mm 4 mps 734 mmHg 95%
    01:00 +22°C° 2.6 mm 4 mps 734 mmHg 95%
    02:00 +21°C° 2.8 mm 4 mps 734 mmHg 95%
    03:00 +21°C° 2.8 mm 4 mps 733 mmHg 95%
    04:00 +21°C° 2.8 mm 4 mps 733 mmHg 95%
    05:00 +21°C° 3.1 mm 3 mps 734 mmHg 96%
    06:00 +21°C° 3.1 mm 3 mps 734 mmHg 96%
    07:00 +21°C° 3.1 mm 2 mps 735 mmHg 96%
    08:00 +21°C° 2.9 mm 2 mps 735 mmHg 96%
    09:00 +21°C° 2.9 mm 2 mps 736 mmHg 97%
    10:00 +21°C° 2.9 mm 2 mps 736 mmHg 97%
    11:00 +21°C° 2.3 mm 2 mps 736 mmHg 97%
    12:00 +21°C° 2.3 mm 2 mps 735 mmHg 97%
    13:00 +21°C° 2.3 mm 2 mps 735 mmHg 97%
    14:00 +21°C° 1 mm 2 mps 735 mmHg 97%
    15:00 +22°C° 1 mm 1 mps 735 mmHg 96%
    16:00 +22°C° 1 mm 1 mps 735 mmHg 96%
    17:00 +22°C° 0.1 mm 1 mps 735 mmHg 96%
    18:00 +22°C° 0.1 mm 1 mps 736 mmHg 96%
    19:00 +22°C° 0.1 mm 1 mps 737 mmHg 96%
    20:00 +22°C° 0 mm 1 mps 737 mmHg 96%
    21:00 +22°C° 0 mm 1 mps 737 mmHg 96%
    22:00 +22°C° 0 mm 1 mps 737 mmHg 95%
    23:00 +22°C° 0 mm 1 mps 737 mmHg 94%
    Show more